TimeEDT,TemperatureF,Dew PointF,Humidity,Sea Level PressureIn,VisibilityMPH,Wind Direction,Wind SpeedMPH,Gust SpeedMPH,PrecipitationIn,Events,Conditions,WindDirDegrees,DateUTC
12:53 AM,46.9,28.9,50,29.96,10.0,NW,5.8,-,N/A,,Clear,320,2012-11-03 04:53:00
1:53 AM,48.0,28.0,46,29.96,10.0,NW,5.8,-,N/A,,Clear,320,2012-11-03 05:53:00
2:53 AM,42.1,30.0,62,29.98,10.0,WNW,3.5,-,N/A,,Clear,300,2012-11-03 06:53:00
3:53 AM,44.1,28.9,55,29.97,10.0,WNW,5.8,-,N/A,,Clear,300,2012-11-03 07:53:00
4:53 AM,42.1,28.0,58,29.98,10.0,WNW,3.5,-,N/A,,Clear,300,2012-11-03 08:53:00
5:53 AM,41.0,28.9,62,30.00,10.0,NW,4.6,-,N/A,,Clear,320,2012-11-03 09:53:00
6:53 AM,39.9,28.9,65,30.01,10.0,West,3.5,-,N/A,,Clear,270,2012-11-03 10:53:00
7:53 AM,42.1,28.0,58,30.03,10.0,Calm,Calm,-,N/A,,Clear,0,2012-11-03 11:53:00
8:53 AM,42.1,32.0,67,30.05,10.0,Calm,Calm,-,N/A,,Clear,0,2012-11-03 12:53:00
9:53 AM,48.0,30.0,50,30.06,10.0,Calm,Calm,-,N/A,,Clear,0,2012-11-03 13:53:00
10:53 AM,53.1,30.9,43,30.06,10.0,Variable,4.6,-,N/A,,Clear,0,2012-11-03 14:53:00
11:53 AM,57.9,32.0,37,30.04,10.0,Variable,4.6,-,N/A,,Clear,0,2012-11-03 15:53:00
12:53 PM,61.0,32.0,34,30.03,10.0,Variable,4.6,-,N/A,,Clear,0,2012-11-03 16:53:00
1:53 PM,64.0,30.0,28,30.01,10.0,Calm,Calm,-,N/A,,Clear,0,2012-11-03 17:53:00
2:53 PM,66.0,28.0,24,29.98,10.0,Calm,Calm,-,N/A,,Clear,0,2012-11-03 18:53:00
3:53 PM,68.0,28.9,23,29.97,10.0,Variable,4.6,-,N/A,,Partly Cloudy,0,2012-11-03 19:53:00
4:53 PM,66.9,34.0,30,29.96,10.0,Calm,Calm,-,N/A,,Clear,0,2012-11-03 20:53:00
5:53 PM,64.9,37.0,36,29.95,10.0,Calm,Calm,-,N/A,,Clear,0,2012-11-03 21:53:00
6:53 PM,59.0,37.9,46,29.96,10.0,Calm,Calm,-,N/A,,Clear,0,2012-11-03 22:53:00
7:53 PM,55.9,37.0,49,29.96,10.0,Calm,Calm,-,N/A,,Clear,0,2012-11-03 23:53:00
8:53 PM,55.9,37.0,49,29.96,10.0,South,3.5,-,N/A,,Clear,190,2012-11-04 00:53:00
9:53 PM,53.1,39.9,61,29.97,10.0,NE,3.5,-,N/A,,Clear,50,2012-11-04 01:53:00
10:53 PM,50.0,39.9,68,29.97,10.0,ENE,4.6,-,N/A,,Clear,60,2012-11-04 02:53:00
11:53 PM,48.9,37.9,66,29.96,10.0,NE,8.1,-,N/A,,Scattered Clouds,50,2012-11-04 03:53:00